This is the latest recevied weather packets stored in our database for station/object WA1OUI. If no packets are shown the sender has not sent any weather packets the latest 10 day(s).
| Time | Temp. | Humidity | Pressure | Rain* | Wind** | Luminosity | Snow |
|---|---|---|---|---|---|---|---|
| 1777531394 | 8.89° C | 96% | 1007.2 hPa | 0.51 mm | - | 0 W/m² | - |
| 1777531092 | 8.89° C | 96% | 1006.8 hPa | 0.51 mm | - | 0 W/m² | - |
| 1777530789 | 8.89° C | 96% | 1006.7 hPa | 1.78 mm | - | 0 W/m² | - |
| 1777530487 | 8.89° C | 96% | 1006.8 hPa | 1.78 mm | - | 0 W/m² | - |
| 1777530182 | 8.89° C | 96% | 1006.7 hPa | 1.78 mm | - | 0 W/m² | - |
| 1777529880 | 8.89° C | 96% | 1006.7 hPa | 2.29 mm | - | 0 W/m² | - |
| 1777529576 | 8.89° C | 95% | 1006.7 hPa | 2.29 mm | - | 0 W/m² | - |
| 1777529274 | 8.89° C | 95% | 1006.9 hPa | 2.29 mm | - | 0 W/m² | - |
| 1777528969 | 8.89° C | 95% | 1007 hPa | 3.05 mm | - | 0 W/m² | - |
| 1777528665 | 9.44° C | 95% | 1007.2 hPa | 4.32 mm | - | 0 W/m² | - |
| 1777528363 | 9.44° C | 95% | 1007.5 hPa | 4.32 mm | - | 0 W/m² | - |
| 1777528061 | 9.44° C | 95% | 1007.6 hPa | 2.29 mm | - | 0 W/m² | - |
| 1777527758 | 9.44° C | 95% | 1007.8 hPa | 2.29 mm | - | 0 W/m² | - |
| 1777527454 | 9.44° C | 95% | 1008 hPa | 2.29 mm | - | 0 W/m² | - |
| 1777527153 | 9.44° C | 94% | 1008.1 hPa | 2.29 mm | - | 0 W/m² | - |
| 1777526851 | 9.44° C | 94% | 1008.1 hPa | 2.29 mm | - | 0 W/m² | - |
| 1777526545 | 9.44° C | 94% | 1008 hPa | 1.78 mm | - | 0 W/m² | - |
| 1777526240 | 9.44° C | 94% | 1008.2 hPa | 2.29 mm | - | 0 W/m² | - |
| 1777525936 | 9.44° C | 93% | 1008.2 hPa | 1.78 mm | - | 0 W/m² | - |
| 1777525634 | 9.44° C | 93% | 1008.1 hPa | 1.78 mm | - | 0 W/m² | - |
| 1777525331 | 9.44° C | 93% | 1008.4 hPa | 1.27 mm | - | 0 W/m² | - |
| 1777525026 | 10° C | 92% | 1008.4 hPa | 1.27 mm | - | 0 W/m² | - |
| 1777524724 | 10° C | 92% | 1008.4 hPa | 1.78 mm | - | 0 W/m² | - |
| 1777524422 | 10° C | 91% | 1008.4 hPa | 1.78 mm | - | 0 W/m² | - |
| 1777524117 | 10° C | 90% | 1008.6 hPa | 2.29 mm | - | 0 W/m² | - |
* Rain latest hour (hover to see other rain measurements)
** Current wind speed in m/s (hover to see current wind gust speed)